[[{"header":{"parameterUnit":"m.s-1","parameterCategory":1,"la1":30.2991,"la2":30.254,"lo1":-89.0895,"lo2":-89.0444,"dy":0.0017,"dx":0.0017,"nx":28,"ny":28,"refTime":"2024-02-23T09:00:00:Z","depth":0,"parameterNumber":2,"parameterNumberName":"U-component_of_WINDS"},"data":[0,0,0,0,0,0,0,0,0,0,0,0,0,0,0,0,0,0,0,0,0,0,0,0,0,0,0,0,0,0,0,0,0,0,0,0,0,0,0,0,0,0,0,0,0,0,0,0,0,0,0,0,0,0,0,0,0,0,3.068,3.0681,0,3.0731,3.0731,3.0732,3.0703,3.0702,3.07,3.0699,3.0752,3.0755,3.0757,0,0,0,0,0,0,0,0,0,0,0,0,0,3.0561,3.0564,3.068,3.0681,3.0681,3.0731,3.0731,3.0732,3.0703,3.0702,3.07,3.0698,3.0751,3.0754,3.0758,0,0,0,0,0,0,0,0,0,0,0,0,0,3.0613,3.0564,3.068,3.0673,3.0673,3.073,3.0731,3.0732,3.0704,3.0702,3.0699,3.0697,3.075,3.0754,3.0758,3.0826,0,0,3.0771,3.0772,0,0,0,0,0,0,0,0,3.061,3.0617,3.0673,3.0674,3.0674,3.0708,3.0709,3.0764,3.0704,3.0692,3.0699,3.0696,3.0739,3.0744,3.0758,3.0828,3.0831,3.0771,3.0773,3.0775,3.0776,0,0,0,0,0,0,0,3.0606,3.0615,3.07,3.0674,3.0674,3.0668,3.0673,3.0719,3.0727,3.0693,3.0691,3.0697,3.0739,3.0754,3.0759,3.0831,3.0771,3.0775,3.0777,3.0779,3.0962,3.0964,0,0,0,0,0,0,3.0603,3.0612,3.0698,3.0702,3.0636,3.0672,3.0677,3.0699,3.0726,3.0728,3.0699,3.0696,3.0748,3.0755,3.0761,3.0844,3.0775,3.0779,3.0781,3.0959,3.0962,3.0965,0,0,0,0,0,0,3.06,3.0611,3.0696,3.0656,3.0667,3.0676,3.0701,3.0701,3.0717,3.0731,3.0732,3.0713,3.0747,3.0755,3.081,3.0845,3.0781,3.0785,3.0957,3.096,3.0964,3.1008,0,0,0,0,0,0,3.0597,3.061,3.0635,3.0657,3.0669,3.0744,3.0703,3.0704,3.0724,3.072,3.0745,3.0747,3.0746,3.0804,3.0814,3.0849,3.0788,3.0953,3.0958,3.0962,3.1004,3.1013,3.1021,0,0,0,0,0,3.0593,3.0646,3.0637,3.0647,3.07,3.0746,3.0753,3.0751,3.0727,3.0753,3.0762,3.0746,3.084,3.081,3.0821,3.0858,3.0951,3.0957,3.0962,3.1,3.1011,3.102,0,0,0,0,0,0,3.0628,3.0648,3.0639,3.07,3.0721,3.0741,3.0774,3.0762,3.0792,3.0787,3.0783,3.0789,3.0847,3.0858,3.0825,3.0926,3.0892,3.09,3.0917,3.0927,3.0936,3.0932,3.0791,0,0,0,0,0,3.0642,3.0677,3.0694,3.0746,3.0757,3.0764,3.0784,3.078,3.0803,3.0812,3.0825,3.0848,3.0883,3.0906,3.0938,3.1005,3.1011,3.1036,3.1045,3.1051,3.1059,3.1097,3.1108,3.0983,3.0983,3.0982,0,0,3.0673,3.0689,3.0711,3.0753,3.077,3.0807,3.0772,3.0812,3.084,3.0818,3.0871,3.0882,3.0907,3.0969,3.0997,3.098,3.1095,3.1058,3.1064,3.1067,3.1103,3.1115,3.1126,3.0986,3.0986,3.0985,0,0,3.0749,3.0763,3.0809,3.0827,3.0852,3.0856,3.0868,3.089,3.0896,3.0949,3.0934,3.0967,3.1027,3.1046,3.1064,3.1149,3.1136,3.1159,3.1204,3.1241,3.1251,3.126,3.1291,3.1303,3.1166,3.1166,3.1166,0,3.0784,3.0838,3.0834,3.0877,3.0896,3.0878,3.0926,3.0943,3.0978,3.0993,3.0973,3.1049,3.1065,3.1131,3.1152,3.1167,3.118,3.1156,3.125,3.1259,3.1267,3.1297,3.1308,3.1169,3.1169,3.1168,3.1168,0,3.0881,3.0919,3.0954,3.0988,3.1012,3.1056,3.106,3.1085,3.108,3.1087,3.1142,3.116,3.1197,3.1213,3.1208,3.128,3.1269,3.125,3.1215,3.1282,3.131,3.1321,3.1173,3.1172,3.1171,3.1171,0,0,3.0979,3.1012,3.1024,3.104,3.1068,3.1098,3.1143,3.1178,3.12,3.1225,3.1264,3.1315,3.1298,3.1318,3.1316,3.1348,3.1416,3.1326,3.1326,3.1343,3.1498,3.1513,3.1526,3.1408,3.141,3.1412,3.1496,0,3.1057,3.1134,3.1133,3.1204,3.1241,3.1225,3.1264,3.1286,3.1294,3.1326,3.1335,3.1372,3.1347,3.1359,3.139,3.1401,3.1448,3.1395,3.1444,3.1446,3.1439,3.154,3.1556,3.1635,3.1507,3.1509,3.151,0,3.1157,3.1186,3.1262,3.1286,3.1301,3.1336,3.137,3.1401,3.1426,3.1429,3.1453,3.1446,3.1492,3.1457,3.1522,3.1486,3.1506,3.1515,3.1518,3.1523,3.1482,3.1549,3.166,3.1672,3.1528,3.1526,3.1525,0,3.1223,3.128,3.1333,3.1348,3.1376,3.1402,3.1415,3.1438,3.146,3.149,3.1505,3.154,3.1559,3.1587,3.159,3.1563,3.1656,3.162,3.1662,3.1662,3.1682,3.1681,3.1798,3.1694,3.1694,3.1694,3.1693,0,3.131,3.1357,3.1363,3.1396,3.1449,3.1448,3.1501,3.1512,3.1533,3.1568,3.1557,3.1591,3.1593,3.1628,3.1631,3.1685,3.1694,3.1699,3.1699,3.17,3.17,3.1713,3.1708,3.1697,3.1696,3.1695,3.1695,0,3.1392,3.1397,3.1455,3.1477,3.1484,3.1523,3.1543,3.1575,3.1582,3.1627,3.1638,3.165,3.169,3.1696,3.1744,3.1746,3.1812,3.1806,3.1803,3.1803,3.1844,3.1841,3.1975,3.1993,3.1877,3.1878,3.1879,0,3.1447,3.1483,3.151,3.1533,3.1548,3.1585,3.1608,3.1609,3.1633,3.1665,3.1694,3.1734,3.1765,3.1832,3.1845,3.1882,3.1878,3.1923,3.1883,3.1884,3.188,3.1878,3.1882,3.193,3.1932,3.1933,3.1933,0,3.1546,3.1547,3.158,3.1615,3.1643,3.167,3.1696,3.1716,3.172,3.1749,3.179,3.1815,3.1865,3.1905,3.1942,3.1957,3.1947,3.1946,3.1957,3.1959,3.1956,3.196,3.1825,3.1943,3.1942,3.1941,3.1941,3.194,3.1617,3.1649,3.1673,3.1711,3.1731,3.1756,3.1787,3.1799,3.1833,3.1873,3.1872,3.1918,3.1944,3.1993,3.201,3.2047,3.2033,3.205,3.2054,3.2058,3.2063,3.195,3.2054,3.2054,3.2054,3.2053,3.2053,0,3.1715,3.1731,3.1766,3.1802,3.1833,3.182,3.1849,3.1875,3.1916,3.1941,3.1973,3.2022,3.2061,3.2078,3.2117,3.2144,3.214,3.2154,3.2152,3.2156,3.2073,3.2059,3.2156,3.2156,3.2156,3.2156,3.2156,3.2156,3.177,3.1824,3.1829,3.1893,3.1908,3.1953,3.1971,3.1994,3.2014,3.2069,3.2102,3.2113,3.2135,3.2176,3.2212,3.2216,3.2231,3.2248,3.225,3.2172,3.2162,3.2152,3.2139,3.2251,3.2251,3.233,3.2331,3.2331]},{"header":{"parameterUnit":"m.s-1","parameterCategory":1,"la1":30.2991,"la2":30.254,"lo1":-89.0895,"lo2":-89.0444,"dy":0.0017,"dx":0.0017,"nx":28,"ny":28,"refTime":"2024-02-23T09:00:00:Z","depth":0,"parameterNumber":3,"parameterNumberName":"V-component_of_WINDS"},"data":[0,0,0,0,0,0,0,0,0,0,0,0,0,0,0,0,0,0,0,0,0,0,0,0,0,0,0,0,0,0,0,0,0,0,0,0,0,0,0,0,0,0,0,0,0,0,0,0,0,0,0,0,0,0,0,0,0,0,-2.98,-2.98,0,-2.986,-2.986,-2.9861,-2.9885,-2.9885,-2.9885,-2.9885,-2.9943,-2.9945,-2.9946,0,0,0,0,0,0,0,0,0,0,0,0,0,-2.9704,-2.9705,-2.98,-2.98,-2.9801,-2.986,-2.986,-2.9861,-2.9885,-2.9885,-2.9885,-2.9885,-2.9943,-2.9945,-2.9947,0,0,0,0,0,0,0,0,0,0,0,0,0,-2.9753,-2.9706,-2.98,-2.982,-2.9823,-2.9859,-2.986,-2.9861,-2.9885,-2.9885,-2.9885,-2.9884,-2.9942,-2.9944,-2.9947,-2.9967,0,0,-2.9955,-2.9956,0,0,0,0,0,0,0,0,-2.975,-2.9756,-2.9816,-2.9819,-2.9822,-2.9865,-2.9848,-2.9897,-2.9885,-2.9861,-2.9885,-2.9884,-2.9917,-2.9922,-2.9933,-2.9969,-2.9972,-2.9955,-2.9956,-2.9958,-2.9958,0,0,0,0,0,0,0,-2.9746,-2.9754,-2.9823,-2.9817,-2.982,-2.9826,-2.9832,-2.9857,-2.9889,-2.9863,-2.9865,-2.9872,-2.9918,-2.9931,-2.9935,-2.9973,-2.9955,-2.9957,-2.9959,-2.996,-3.0028,-3.0029,0,0,0,0,0,0,-2.974,-2.9751,-2.9821,-2.9825,-2.9785,-2.9828,-2.9835,-2.9851,-2.9889,-2.9895,-2.9872,-2.9873,-2.9927,-2.9932,-2.9937,-2.9963,-2.9957,-2.996,-2.9961,-3.0028,-3.0028,-3.0029,0,0,0,0,0,0,-2.9738,-2.9746,-2.9819,-2.9789,-2.9798,-2.983,-2.9847,-2.9852,-2.9865,-2.9896,-2.9902,-2.9879,-2.9927,-2.9933,-2.9959,-2.9965,-2.9961,-2.9963,-3.0028,-3.0028,-3.0029,-3.0014,0,0,0,0,0,0,-2.9735,-2.9745,-2.9753,-2.9789,-2.98,-2.9841,-2.9848,-2.9854,-2.9869,-2.9871,-2.9904,-2.9909,-2.9927,-2.9955,-2.9962,-2.9969,-2.9965,-3.0027,-3.0028,-3.0028,-3.0014,-3.0014,-3.0014,0,0,0,0,0,-2.9731,-2.9746,-2.9754,-2.9762,-2.9811,-2.9841,-2.9848,-2.9869,-2.987,-2.9878,-2.9898,-2.9908,-2.9963,-2.9958,-2.9965,-2.9973,-3.0027,-3.0028,-3.0028,-3.0014,-3.0014,-3.0014,0,0,0,0,0,0,-2.971,-2.9751,-2.976,-2.9787,-2.9811,-2.9845,-2.9857,-2.9868,-2.9891,-2.9891,-2.9915,-2.9922,-2.9946,-2.9962,-2.9955,-2.9994,-2.9996,-2.9998,-2.9983,-2.9983,-2.9983,-2.9978,-2.9967,0,0,0,0,0,-2.9709,-2.9731,-2.9765,-2.9786,-2.9797,-2.9825,-2.9839,-2.9853,-2.9878,-2.9888,-2.991,-2.9933,-2.9956,-2.997,-2.9993,-3.0017,-3.0024,-3.0026,-3.0025,-3.0025,-3.0027,-3.0041,-3.0042,-3.0031,-3.0031,-3.0031,0,0,-2.9706,-2.9731,-2.9743,-2.9782,-2.9802,-2.9824,-2.9833,-2.9856,-2.9872,-2.9891,-2.9917,-2.9934,-2.9962,-2.9987,-2.9999,-3.0001,-3.0031,-3.0026,-3.0026,-3.0027,-3.0041,-3.0042,-3.0043,-3.0031,-3.0031,-3.0031,0,0,-2.9712,-2.9733,-2.9753,-2.9773,-2.9803,-2.9822,-2.9826,-2.986,-2.9872,-2.9899,-2.9914,-2.9933,-2.9972,-2.9991,-3.0005,-3.0019,-3.0029,-3.0025,-3.0024,-3.0038,-3.0038,-3.0039,-3.0044,-3.0045,-3.0027,-3.0027,-3.0027,0,-2.9704,-2.9738,-2.9761,-2.9783,-2.9799,-2.9819,-2.9839,-2.9857,-2.9893,-2.9903,-2.9905,-2.9954,-2.9974,-3.0004,-3.0007,-3.0018,-3.0024,-3.0022,-3.0037,-3.0038,-3.0039,-3.0044,-3.0045,-3.0026,-3.0026,-3.0026,-3.0026,0,-2.9727,-2.975,-2.9762,-2.9798,-2.9815,-2.9836,-2.9862,-2.9877,-2.9889,-2.9907,-2.9934,-2.9959,-2.9987,-2.9995,-3.0007,-3.0027,-3.0027,-3.0032,-3.0035,-3.0039,-3.0044,-3.0046,-3.0025,-3.0026,-3.0026,-3.0026,0,0,-2.9721,-2.9769,-2.9773,-2.9789,-2.9825,-2.9843,-2.9864,-2.9893,-2.9905,-2.9929,-2.9947,-2.998,-2.9985,-3.0002,-3.0016,-3.0028,-3.0037,-3.0032,-3.0033,-3.0032,-3.006,-3.0055,-3.0057,-3.0044,-3.0044,-3.0045,-3.0058,0,-2.9731,-2.9771,-2.9793,-2.9823,-2.9845,-2.9864,-2.9883,-2.9906,-2.9923,-2.9944,-2.9962,-2.9985,-2.9991,-3.0001,-3.0013,-3.0033,-3.0043,-3.0033,-3.006,-3.0061,-3.0053,-3.006,-3.0055,-3.0066,-3.006,-3.006,-3.006,0,-2.9749,-2.9774,-2.9807,-2.984,-2.985,-2.9866,-2.9894,-2.9914,-2.994,-2.9952,-2.9971,-2.9985,-3.0008,-3.0009,-3.004,-3.0032,-3.0045,-3.0056,-3.0057,-3.006,-3.0061,-3.0063,-3.007,-3.0072,-3.0063,-3.0063,-3.0063,0,-2.9741,-2.9783,-2.9808,-2.9821,-2.9861,-2.9872,-2.9889,-2.9915,-2.9931,-2.9955,-2.9965,-2.9991,-3.0005,-3.0025,-3.0045,-3.0044,-3.0074,-3.0077,-3.0084,-3.0084,-3.0089,-3.0089,-3.0099,-3.0098,-3.0098,-3.0098,-3.0098,0,-2.975,-2.977,-2.9805,-2.9821,-2.9843,-2.9867,-2.9888,-2.9906,-2.993,-2.9949,-2.9966,-2.9983,-3.001,-3.003,-3.0046,-3.0069,-3.0076,-3.0085,-3.0089,-3.0084,-3.0082,-3.0092,-3.0092,-3.0098,-3.0098,-3.0098,-3.0098,0,-2.9745,-2.977,-2.9799,-2.9834,-2.9843,-2.9858,-2.9888,-2.9903,-2.9922,-2.9945,-2.9952,-2.9981,-3.0005,-3.0028,-3.0061,-3.0072,-3.0095,-3.01,-3.0086,-3.0089,-3.0095,-3.0094,-3.0111,-3.0114,-3.0111,-3.0111,-3.0111,0,-2.975,-2.9766,-2.9803,-2.9817,-2.9834,-2.9856,-2.9873,-2.9897,-2.9913,-2.9945,-2.9957,-2.9983,-3.0005,-3.0044,-3.0067,-3.0092,-3.0098,-3.0102,-3.0101,-3.0095,-3.0098,-3.0096,-3.0098,-3.0102,-3.0101,-3.0101,-3.0101,0,-2.9755,-2.9767,-2.979,-2.9818,-2.9838,-2.986,-2.9884,-2.9894,-2.9923,-2.994,-2.9966,-2.9983,-3.0017,-3.0043,-3.0071,-3.0087,-3.0099,-3.0101,-3.0104,-3.0099,-3.009,-3.0095,-3.0085,-3.0101,-3.0101,-3.0101,-3.0101,-3.0101,-2.9755,-2.977,-2.9799,-2.9824,-2.9845,-2.9866,-2.9882,-2.9903,-2.9926,-2.9956,-2.9969,-2.9995,-3.0021,-3.006,-3.0076,-3.0096,-3.0099,-3.0103,-3.0104,-3.0105,-3.0104,-3.0087,-3.0101,-3.0101,-3.0101,-3.0102,-3.0102,0,-2.9761,-2.9781,-2.9804,-2.9837,-2.9857,-2.9867,-2.9894,-2.991,-2.9933,-2.9957,-2.9979,-3.0008,-3.0034,-3.0059,-3.0085,-3.0097,-3.0103,-3.0103,-3.0102,-3.0105,-3.01,-3.0095,-3.0097,-3.0097,-3.0097,-3.0097,-3.0097,-3.0097,-2.9767,-2.9793,-2.9808,-2.9843,-2.9863,-2.9889,-2.9904,-2.9923,-2.9942,-2.9975,-2.9997,-3.0013,-3.0038,-3.0066,-3.0089,-3.0096,-3.0105,-3.0103,-3.0111,-3.0106,-3.0106,-3.0106,-3.0101,-3.0105,-3.0105,-3.0115,-3.0115,-3.0115]}]]